Starlink 33635

operational
NORAD ID: 63065 Int'l Des: 2025-035 Owner: SPXS Country: US Constellation: starlink
LEOCIRCULAR

Über Starlink 33635

Beschreibung wird geladen...

Live-Position

3D-Globus wird geladen...

Nächste Überflüge

Höhenverlauf

Altitude vs Time

uPlot chart will show altitude changes over time

Zweizeiliger Elementsatz

1 63065U 25035P 26034.18900559 .00025606 00000-0 93606-3 0 9993
2 63065 43.0000 341.8917 0001556 266.3020 93.7654 15.27605261 54455
Epoch: 3. Feb. 2026 • Age: 12 hours

Aktueller Status

Höhe 483.1 km
Geschwindigkeit 7.63 km/s
Subsatellitenpunkt -3.70°S, 144.29°E
Startdatum 21. Feb. 2025
Alter 0.9 years
Typ internet

Technische Details

Klassifizierung Payload
Masse 575.00 kg
Trockenmasse 530.00 kg
Gesamtmasse 575.00 kg
Länge 0.30 m
Durchmesser 4.10 m
Spannweite 29.00 m
Form Box + pan
Hersteller SPXS
Bus-Typ Starlink V2MO
Phasenstatus In Orbit
Besitzer/Staat SPXS/US

Große Konstellationen

Loading constellations...